Temp
-6 -7 -7 -7 -7 -7 -7 -7 -7 -7 -7 -7 -7 -7 -7 -7 -7 -7 -7 -7 -7 -7 -7 -7 -7 -8 -7 -7 -8 -8 -7 -7 -7 -7 -7 -7 -7 -7 -7 -7 -7 -7 -7
-7 -7 -7 -7 -8 -7 -8 -8 -7 -7 -7 -7 -7 -7 -7 -7 -7 -8 -7 -8 -8 -7 -7 -7 -7 -7 -7 -8 -8 -8 -7 -7 -7 -8 -7 -7 -7 -7 -7 -7 -7 -7 -7
-6 -6 -6 -6 -6 -8 -7 -8 -7 -8 -7 -7 -7 -7 -7 -7 -7 -8 -8 -8 -8 -8 -7 -7 -7 -7 -8 -8 -8 -8 -8 -8 -8 -7 -7 -7 -8 -8 -8 -8 -7 -7 -8
-6 -6 -6 -6 -6 -7 -7 -7 -7 -7 -7 -7 -7 -7 -7 -7 -7 -7 -8 -8 -8 -8 -7 -7 -7 -7 -7 -7 -7 -8 -8 -8 -7 -7 -7 -7 -7 -7 -8 -8 -8 -8 -8
-6 -5 -6 -6 -6 -7 -7 -7 -7 -6 -7 -8 -7 -6 -7 -7 -7 -7 -7 -8 -7 -8 -8 -8 -8 -8 -7 -7 -7 -8 -7 -7 -8 -8 -8 -8 -8 -8 -8 -7 -8 -8 -7
-6 -5 -5 -5 -5 -5 -6 -7 -8 -7 -7 -7 -8 -7 -7 -7 -7 -7 -7 -8 -8 -8 -8 -8 -8 -8 -8 -8 -8 -8 -8 -7 -7 -8 -9 -9 -8 -8 -8 -8 -8 -8 -8
-5 -5 -5 -5 -5 -6 -6 -6 -7 -8 -8 -8 -8 -8 -7 -7 -8 -8 -8 -8 -8 -8 -8 -8 -8 -9 -8 -8 -9 -8 -8 -8 -8 -8 -8 -9 -9 -8 -8 -8 -8 -8 -8
-6 -6 -6 -6 -6 -6 -6 -6 -7 -7 -8 -8 -8 -8 -8 -8 -7 -8 -8 -8 -8 -8 -8 -9 -8 -8 -9 -8 -9 -8 -9 -8 -8 -8 -8 -8 -8 -8 -9 -8 -8 -8 -8
-6 -6 -6 -6 -6 -6 -6 -7 -8 -8 -8 -8 -9 -9 -8 -9 -9 -8 -8 -8 -8 -8 -8 -8 -8 -8 -9 -9 -8 -8 -8 -8 -8 -8 -8 -8 -8 -8 -8 -8 -8 -8 -8
-6 -7 -7 -7 -6 -6 -7 -8 -9 -9 -9 -9 -9 -9 -9 -9 -9 -9 -10 -9 -8 -9 -8 -8 -8 -8 -8 -8 -8 -8 -8 -8 -8 -8 -8 -8 -7 -8 -8 -8 -8 -8 -7
-6 -7 -7 -7 -7 -8 -9 -9 -9 -9 -9 -9 -9 -9 -9 -9 -9 -9 -10 -9 -9 -8 -8 -8 -9 -8 -8 -8 -8 -7 -8 -9 -8 -8 -8 -8 -8 -8 -8 -8 -8 -7 -7
-7 -7 -7 -7 -8 -9 -10 -10 -10 -9 -9 -9 -9 -9 -9 -9 -9 -9 -9 -10 -8 -8 -9 -8 -8 -8 -9 -9 -9 -8 -8 -8 -8 -8 -8 -8 -8 -8 -8 -7 -7 -7 -7
-7 -7 -7 -7 -8 -9 -9 -9 -9 -9 -10 -10 -9 -9 -10 -10 -9 -9 -9 -9 -9 -9 -8 -8 -8 -9 -8 -9 -9 -8 -9 -8 -8 -8 -7 -8 -8 -8 -8 -7 -7 -7 -7
-7 -7 -7 -8 -9 -9 -9 -9 -9 -9 -9 -9 -9 -10 -10 -10 -10 -9 -10 -10 -9 -9 -8 -9 -9 -9 -9 -8 -8 -8 -8 -8 -8 -8 -8 -8 -7 -7 -7 -8 -7 -7 -7
-7 -8 -8 -9 -9 -9 -9 -9 -9 -9 -9 -9 -10 -10 -10 -10 -10 -10 -9 -10 -10 -9 -9 -9 -9 -9 -9 -9 -8 -8 -8 -9 -9 -8 -8 -8 -8 -7 -7 -7 -7 -7 -7
-8 -9 -9 -10 -10 -9 -9 -9 -9 -9 -9 -9 -10 -10 -10 -10 -10 -10 -10 -9 -10 -10 -9 -9 -8 -8 -10 -9 -8 -8 -8 -8 -9 -9 -8 -8 -8 -8 -7 -7 -7 -7 -7
-9 -10 -10 -10 -10 -10 -9 -9 -10 -10 -9 -10 -10 -10 -11 -10 -10 -10 -10 -10 -10 -9 -9 -9 -9 -8 -8 -8 -8 -8 -8 -8 -9 -8 -7 -8 -8 -8 -7 -8 -7 -7 -7
-10 -10 -10 -10 -10 -10 -10 -9 -9 -10 -10 -11 -11 -11 -11 -11 -11 -11 -10 -10 -10 -10 -9 -9 -9 -9 -8 -7 -7 -7 -7 -8 -8 -7 -8 -7 -8 -8 -8 -7 -7 -7 -7
-10 -10 -10 -10 -10 -10 -10 -10 -10 -11 -11 -12 -12 -11 -12 -11 -11 -11 -11 -10 -10 -10 -10 -9 -9 -8 -8 -7 -7 -7 -8 -7 -7 -8 -8 -7 -8 -8 -8 -7 -7 -7 -7
-10 -10 -10 -10 -10 -10 -11 -11 -11 -11 -12 -12 -12 -12 -12 -11 -11 -11 -11 -11 -11 -11 -10 -10 -10 -9 -8 -7 -7 -6 -7 -7 -7 -7 -7 -7 -7 -8 -8 -7 -7 -7 -7
-11 -11 -11 -11 -11 -11 -11 -12 -12 -12 -12 -12 -12 -12 -12 -12 -12 -11 -11 -11 -11 -11 -11 -11 -11 -11 -10 -9 -7 -7 -7 -8 -7 -7 -8 -8 -8 -8 -8 -8 -7 -7 -7
-11 -11 -11 -12 -12 -12 -12 -12 -12 -12 -12 -12 -12 -12 -12 -12 -12 -12 -12 -11 -11 -11 -11 -11 -11 -10 -10 -10 -8 -8 -7 -7 -7 -7 -7 -8 -8 -8 -8 -8 -7 -7 -7
-12 -12 -12 -12 -12 -12 -13 -12 -12 -11 -12 -12 -12 -12 -12 -12 -12 -12 -12 -11 -11 -11 -11 -11 -11 -11 -9 -10 -9 -8 -6 -7 -8 -8 -8 -8 -8 -8 -8 -8 -8 -8 -8
-12 -12 -12 -13 -12 -12 -12 -12 -12 -12 -12 -12 -12 -12 -12 -12 -12 -12 -12 -12 -11 -11 -11 -12 -10 -10 -10 -9 -10 -8 -7 -8 -9 -9 -8 -8 -8 -9 -8 -8 -8 -8 -8
-12 -12 -12 -12 -12 -12 -12 -12 -11 -12 -12 -12 -12 -12 -12 -12 -12 -12 -12 -12 -12 -12 -12 -11 -10 -10 -10 -9 -9 -8 -9 -8 -9 -9 -8 -8 -9 -10 -9 -9 -9 -9 -9
-13 -12 -12 -12 -12 -12 -12 -12 -12 -12 -12 -11 -12 -11 -12 -12 -12 -12 -12 -12 -12 -11 -11 -11 -10 -9 -9 -9 -9 -9 -8 -9 -9 -8 -8 -9 -10 -10 -9 -9 -9 -10 -9
Height
5890 5890 5890 5890 5889 5888 5888 5887 5886 5886 5886 5884 5884 5885 5885 5885 5884 5886 5888 5889 5890 5891 5891 5892 5893 5894 5897 5895 5897 5898 5899 5900 5900 5899 5899 5900 5904 5907 5910 5912 5914 5916 5917
5888 5887 5886 5886 5887 5885 5884 5883 5883 5883 5883 5883 5881 5880 5880 5879 5879 5881 5882 5883 5885 5885 5886 5887 5888 5890 5892 5893 5893 5895 5896 5896 5896 5895 5895 5895 5898 5902 5905 5908 5911 5913 5914
5883 5882 5881 5879 5872 5879 5872 5875 5882 5883 5883 5881 5880 5879 5878 5876 5875 5875 5876 5878 5879 5879 5880 5882 5883 5886 5888 5890 5890 5889 5891 5892 5893 5893 5892 5892 5894 5897 5900 5903 5905 5908 5910
5878 5877 5876 5876 5875 5874 5873 5873 5875 5877 5878 5879 5877 5874 5873 5873 5872 5870 5870 5872 5874 5874 5875 5876 5878 5880 5882 5885 5886 5886 5887 5888 5889 5889 5888 5888 5889 5890 5894 5897 5901 5902 5904
5874 5873 5871 5869 5868 5866 5864 5865 5867 5868 5868 5869 5869 5867 5866 5866 5865 5863 5863 5864 5866 5868 5868 5870 5870 5873 5875 5879 5881 5881 5883 5883 5884 5884 5883 5884 5884 5885 5889 5891 5894 5897 5899
5865 5866 5865 5863 5862 5861 5858 5854 5853 5856 5858 5858 5859 5859 5856 5858 5857 5857 5855 5855 5857 5859 5861 5862 5863 5864 5867 5870 5873 5874 5876 5879 5880 5880 5880 5881 5881 5882 5884 5888 5891 5893 5895
5857 5856 5855 5853 5850 5848 5847 5846 5844 5841 5842 5845 5847 5848 5848 5848 5848 5848 5848 5846 5848 5850 5852 5853 5854 5857 5858 5859 5863 5865 5869 5872 5874 5875 5876 5876 5877 5877 5880 5884 5886 5888 5889
5847 5846 5844 5841 5838 5835 5833 5832 5831 5831 5829 5828 5832 5834 5836 5837 5836 5832 5836 5837 5839 5841 5843 5844 5844 5846 5849 5850 5852 5857 5860 5863 5866 5868 5870 5871 5873 5874 5875 5877 5879 5881 5882
5839 5836 5832 5829 5826 5822 5819 5817 5816 5815 5816 5816 5815 5817 5820 5824 5823 5823 5823 5824 5829 5832 5832 5833 5835 5837 5839 5840 5844 5848 5852 5856 5857 5860 5863 5865 5866 5869 5871 5872 5873 5874 5875
5829 5825 5821 5817 5812 5809 5806 5803 5801 5800 5801 5802 5804 5804 5805 5808 5810 5812 5812 5813 5814 5819 5819 5822 5824 5828 5828 5830 5836 5839 5843 5849 5850 5851 5854 5857 5859 5861 5864 5866 5866 5868 5868
5816 5813 5809 5805 5800 5796 5792 5789 5786 5785 5787 5788 5789 5790 5790 5793 5795 5797 5797 5799 5802 5801 5804 5805 5809 5814 5819 5821 5825 5829 5836 5836 5839 5843 5846 5849 5851 5854 5856 5857 5858 5860 5861
5803 5799 5795 5791 5787 5783 5780 5778 5774 5771 5771 5773 5774 5775 5776 5777 5778 5780 5782 5781 5779 5784 5784 5794 5797 5799 5803 5808 5812 5822 5825 5826 5829 5834 5838 5842 5844 5844 5844 5846 5850 5853 5854
5789 5785 5782 5777 5773 5768 5764 5763 5760 5756 5756 5755 5757 5758 5759 5760 5762 5764 5764 5764 5764 5763 5762 5778 5781 5792 5795 5797 5802 5806 5811 5817 5821 5824 5830 5834 5834 5833 5833 5838 5841 5843 5845
5776 5772 5767 5763 5758 5753 5750 5747 5744 5741 5739 5739 5740 5741 5743 5744 5746 5747 5750 5749 5752 5752 5759 5763 5773 5775 5782 5785 5788 5793 5797 5806 5810 5815 5819 5822 5822 5824 5826 5827 5830 5832 5834
5763 5758 5753 5748 5743 5739 5736 5733 5731 5728 5726 5725 5725 5726 5728 5731 5733 5733 5735 5736 5741 5742 5745 5754 5753 5761 5770 5774 5778 5782 5784 5791 5799 5804 5807 5810 5810 5812 5815 5815 5817 5820 5822
5750 5744 5739 5734 5729 5725 5722 5720 5717 5715 5713 5712 5712 5713 5712 5715 5717 5719 5721 5725 5726 5730 5732 5739 5744 5748 5757 5761 5767 5770 5772 5778 5787 5791 5795 5798 5799 5802 5804 5805 5807 5808 5809
5735 5731 5726 5721 5716 5711 5707 5704 5703 5699 5698 5698 5698 5698 5698 5700 5701 5704 5706 5709 5715 5717 5721 5722 5727 5734 5739 5746 5751 5755 5761 5769 5772 5778 5782 5787 5788 5791 5793 5795 5796 5798 5798
5723 5719 5714 5708 5703 5698 5695 5691 5688 5686 5683 5680 5680 5681 5683 5685 5686 5689 5692 5694 5698 5702 5705 5707 5713 5718 5723 5729 5736 5742 5748 5755 5761 5766 5771 5777 5777 5779 5782 5785 5786 5787 5787
5712 5707 5703 5696 5692 5687 5683 5679 5674 5671 5669 5668 5665 5664 5667 5669 5672 5675 5679 5682 5685 5688 5691 5694 5697 5700 5705 5712 5720 5727 5734 5741 5748 5753 5758 5764 5765 5767 5772 5774 5776 5777 5778
5701 5696 5691 5686 5681 5676 5671 5666 5663 5660 5657 5653 5653 5653 5651 5655 5660 5663 5666 5670 5673 5677 5680 5683 5684 5686 5688 5695 5704 5712 5720 5727 5734 5741 5748 5752 5753 5755 5760 5763 5765 5768 5770
5691 5685 5680 5676 5671 5667 5662 5658 5654 5650 5646 5642 5640 5640 5641 5643 5647 5652 5655 5658 5661 5665 5668 5670 5673 5674 5679 5684 5695 5700 5705 5712 5722 5729 5734 5738 5740 5744 5748 5752 5755 5758 5761
5684 5678 5672 5667 5663 5659 5654 5651 5647 5643 5638 5633 5630 5630 5631 5634 5638 5641 5644 5648 5651 5654 5656 5660 5664 5666 5669 5675 5682 5689 5693 5702 5708 5715 5720 5724 5728 5732 5736 5741 5744 5747 5749
5677 5672 5666 5662 5658 5654 5650 5645 5641 5635 5630 5625 5622 5620 5622 5625 5628 5632 5634 5638 5642 5646 5647 5649 5652 5657 5661 5665 5668 5675 5681 5688 5697 5701 5706 5710 5713 5719 5725 5730 5732 5735 5739
5673 5668 5662 5658 5654 5650 5645 5640 5635 5629 5625 5620 5617 5614 5615 5618 5622 5626 5628 5630 5634 5637 5639 5641 5642 5646 5651 5655 5659 5664 5670 5677 5683 5691 5694 5700 5704 5706 5713 5719 5721 5723 5726
5669 5664 5660 5655 5651 5646 5640 5634 5630 5626 5621 5613 5611 5611 5611 5613 5614 5616 5619 5622 5625 5627 5629 5630 5632 5638 5642 5646 5650 5654 5660 5666 5672 5679 5683 5687 5691 5695 5701 5707 5709 5712 5715
5664 5660 5656 5652 5648 5643 5637 5632 5627 5623 5619 5614 5610 5608 5609 5609 5610 5612 5613 5614 5617 5619 5619 5621 5623 5627 5630 5636 5642 5646 5650 5656 5661 5667 5673 5677 5681 5686 5692 5696 5699 5700 5701
Wind_Speed
6 5 8 10 11 12 10 8 9 8 11 15 16 17 18 22 25 23 23 22 22 20 19 19 19 19 16 16 14 11 10 9 12 10 16 25 28 25 22 21 19 19 18
10 11 12 12 13 18 19 16 12 11 13 13 17 19 18 18 18 24 26 24 26 25 23 21 20 21 17 18 14 16 15 14 11 10 13 19 30 24 26 24 23 22 22
13 14 16 19 21 22 25 21 18 21 21 18 19 19 19 21 21 22 23 30 27 28 26 25 23 21 20 18 16 18 19 17 14 12 10 15 32 29 28 27 25 26 25
19 20 21 22 24 26 29 28 25 25 23 24 25 24 22 22 24 23 23 18 24 28 28 28 27 24 23 21 19 19 21 21 21 14 11 13 11 31 34 27 25 25 24
19 21 23 25 26 30 35 33 31 30 31 31 25 29 29 26 25 27 26 26 26 27 29 30 29 29 26 26 23 22 23 24 22 18 15 15 13 11 26 32 24 22 24
25 25 25 25 30 33 34 38 40 38 39 37 33 31 34 35 30 29 29 28 28 30 31 32 31 32 30 29 28 27 25 25 23 21 19 19 18 17 18 19 20 20 22
30 31 30 34 37 38 37 35 37 42 43 43 43 40 37 37 35 34 33 31 32 32 33 35 35 35 35 33 33 30 27 26 26 25 23 24 24 23 21 21 21 21 21
33 34 37 39 42 42 43 44 41 37 41 44 45 48 46 42 42 40 39 37 34 34 35 36 37 38 37 33 33 32 29 28 30 29 27 26 26 29 25 28 26 25 26
36 38 41 44 45 48 50 50 46 41 37 38 43 47 53 51 47 45 41 41 40 37 38 38 36 37 36 37 36 35 33 32 32 32 31 32 30 29 29 30 28 28 28
38 40 42 45 48 51 52 49 47 45 40 39 37 40 46 54 58 54 50 46 43 42 42 41 40 38 39 40 37 40 39 36 39 37 34 34 34 33 31 31 33 33 32
41 42 44 45 46 46 46 44 45 45 43 41 42 42 43 45 53 59 61 56 51 50 48 47 45 42 40 42 41 38 39 44 43 42 38 35 35 35 35 37 36 36 34
44 45 46 48 46 43 44 46 48 52 50 48 47 45 48 48 50 53 63 67 60 64 62 55 49 46 43 43 42 40 41 45 46 43 41 38 36 37 39 41 39 36 35
45 47 48 51 47 45 46 45 47 50 50 51 50 50 47 50 52 49 54 67 75 79 55 68 55 45 46 44 43 41 42 43 43 43 40 38 41 43 44 41 39 40 38
46 49 53 52 46 45 45 45 44 42 42 44 47 47 46 49 50 51 50 49 61 77 69 81 53 41 53 48 46 44 39 39 41 43 44 45 47 46 44 43 41 41 40
50 51 49 46 46 47 45 44 41 41 37 36 39 44 46 46 47 49 50 50 49 48 59 59 66 70 56 48 47 46 40 39 42 41 41 44 44 45 43 43 42 41 42
50 49 46 46 48 46 44 43 46 45 44 40 37 39 44 45 48 49 49 46 45 47 44 43 45 52 54 43 48 48 44 40 42 45 42 43 43 43 42 41 40 41 42
47 45 45 45 41 39 39 42 43 47 48 48 46 44 42 43 46 49 51 51 48 46 42 43 39 41 45 52 44 49 47 45 45 47 42 43 40 40 40 39 40 41 41
44 44 43 42 42 40 40 41 41 42 44 48 48 46 44 43 44 45 47 48 48 48 50 47 45 42 44 54 51 50 52 49 47 46 43 43 40 39 39 40 39 37 37
42 42 39 41 38 38 38 39 40 39 40 41 44 46 46 44 43 44 46 43 43 44 44 45 45 46 47 49 52 47 50 48 49 49 45 44 41 38 38 39 38 36 36
39 37 35 37 36 36 36 35 33 31 34 38 37 38 42 42 41 40 40 41 40 40 40 42 40 42 47 50 50 53 54 49 53 52 48 46 42 39 38 40 38 36 34
31 30 34 34 34 33 32 25 27 27 30 31 30 34 34 36 35 37 38 39 38 37 38 38 37 35 38 42 43 45 46 51 53 50 48 50 45 42 41 42 40 39 38
30 31 33 30 28 28 28 26 26 26 28 27 23 27 32 33 33 34 37 38 39 38 38 38 35 33 37 41 38 34 35 40 42 43 50 48 44 44 44 43 41 40 39
31 33 26 20 21 22 24 23 25 22 31 24 22 23 28 28 31 34 35 38 35 36 37 39 41 33 43 43 42 40 41 44 46 42 41 46 48 46 46 44 43 42 40
29 25 22 22 24 23 23 25 25 23 25 25 20 14 17 24 28 31 33 35 35 35 32 36 33 29 38 43 42 39 43 47 53 44 45 44 49 48 46 45 45 44 43
23 22 23 23 24 22 28 25 22 24 25 26 15 14 15 19 26 29 30 32 33 34 33 36 33 31 28 35 40 37 45 44 44 41 43 46 50 48 47 48 47 45 43
25 25 23 23 21 24 24 25 22 23 24 29 14 14 17 14 23 26 27 30 29 29 36 31 29 35 29 31 35 38 37 42 46 42 48 48 47 47 48 48 48 46 45
Wind_Direction
284 289 304 308 313 310 308 307 297 280 265 266 264 263 268 263 259 251 246 238 233 235 232 239 247 249 248 258 256 261 270 266 255 246 254 231 221 219 222 221 212 215 214
285 283 276 278 289 299 294 279 275 287 287 275 275 274 272 271 251 256 254 242 245 238 237 240 244 246 239 247 245 241 245 263 259 252 254 234 210 228 218 227 226 225 224
289 289 287 292 287 288 275 298 290 300 288 289 286 283 279 272 267 265 242 256 243 243 243 246 249 247 235 233 233 236 238 246 255 251 241 227 225 225 220 225 232 228 229
287 287 285 284 282 281 282 285 285 279 282 288 287 285 280 277 272 263 247 257 249 245 244 245 251 245 240 234 231 226 230 238 243 245 240 230 234 223 216 221 222 220 226
284 285 288 290 288 282 278 274 270 267 268 271 272 267 274 276 271 265 261 257 255 250 247 246 246 252 244 240 236 234 230 233 244 254 253 230 235 205 209 215 213 231 230
292 290 289 293 299 300 293 279 275 269 259 260 264 255 261 258 262 263 258 258 256 253 250 246 245 249 255 249 243 240 232 232 236 244 244 224 223 225 224 224 234 236 241
290 291 293 297 301 302 300 293 277 273 268 259 253 252 251 259 258 256 259 252 252 252 252 252 250 249 249 252 248 236 233 233 231 236 235 226 224 226 234 235 235 240 242
290 292 295 299 302 303 303 300 289 274 267 264 256 250 251 247 254 251 252 255 251 248 251 253 250 251 249 247 246 233 235 235 237 233 234 236 234 230 229 232 231 237 240
291 295 298 299 300 303 302 299 287 278 269 260 258 253 249 246 249 251 256 258 253 252 250 251 251 247 247 246 241 236 237 237 238 241 236 238 237 238 233 234 236 240 243
293 296 298 298 299 301 300 291 283 277 270 262 260 260 255 250 250 249 248 253 258 250 251 249 249 247 246 246 245 238 235 238 238 236 237 239 243 244 242 240 241 242 245
295 297 296 297 299 295 289 286 282 276 270 268 264 258 258 257 250 249 251 247 248 252 245 242 241 243 248 249 247 241 241 237 237 238 238 242 246 248 249 247 245 245 247
297 297 299 300 297 282 277 280 278 275 272 269 266 264 260 257 254 251 246 249 242 250 242 243 241 237 236 242 245 249 247 244 244 242 241 243 248 251 252 250 247 246 250
296 298 298 300 294 283 283 282 280 273 271 271 263 262 259 256 255 254 254 248 248 246 246 245 237 238 240 239 243 242 244 247 246 245 246 244 245 247 249 253 253 251 251
297 299 300 299 289 282 285 284 284 284 276 270 265 260 258 253 255 253 256 258 253 253 253 254 243 234 239 239 239 240 241 247 246 248 250 247 248 249 248 249 252 255 255
299 301 300 295 287 286 287 283 278 281 283 273 262 259 259 254 255 254 254 258 256 260 259 260 263 260 242 240 242 243 239 242 248 247 248 248 248 251 252 250 250 252 254
302 302 300 295 295 292 289 283 280 281 275 274 270 266 262 254 250 254 251 253 256 259 261 262 256 256 257 252 246 244 242 238 243 247 245 245 246 251 250 251 251 252 255
300 299 299 299 300 294 288 284 278 277 277 269 270 269 261 257 253 249 252 254 253 257 260 258 252 245 244 248 248 240 241 241 238 245 245 245 245 250 251 252 254 257 254
296 299 301 300 298 298 294 290 285 278 272 269 269 262 263 256 251 251 250 253 256 255 257 260 253 252 241 240 238 247 237 239 243 242 244 249 246 248 252 255 255 260 262
300 301 301 300 298 300 294 287 283 281 277 272 269 265 254 256 254 251 252 250 250 253 253 256 257 253 241 239 232 231 229 246 245 243 242 242 243 247 251 256 257 261 260
301 299 299 301 303 300 298 294 288 286 283 277 266 263 259 252 251 249 248 247 246 249 252 256 256 254 242 229 224 226 234 237 235 238 240 244 238 243 248 252 252 254 251
310 303 299 304 305 302 302 294 289 296 291 294 272 257 256 248 245 245 245 245 243 242 247 250 248 242 235 212 221 224 231 231 228 229 241 238 237 237 241 245 246 247 246
311 317 307 303 307 307 306 292 298 304 305 299 275 264 255 253 242 240 240 240 242 244 247 252 243 227 207 206 208 214 217 222 230 236 237 234 234 233 237 240 241 243 243
312 318 319 310 316 315 316 316 313 311 311 298 285 280 254 245 235 236 239 238 246 245 245 263 238 231 217 215 210 216 221 219 225 222 228 237 229 230 235 236 237 238 240
326 328 332 329 324 318 318 318 323 327 328 306 301 281 247 239 237 239 245 245 245 244 244 256 233 224 230 223 225 220 219 222 217 228 235 234 229 225 233 236 237 238 240
325 332 336 330 337 339 337 319 320 333 339 345 285 281 256 239 234 236 240 248 250 248 242 243 237 211 222 229 232 230 230 234 225 232 235 235 230 224 229 236 237 239 241
321 323 328 330 338 345 349 350 337 335 343 337 337 304 271 260 242 241 245 249 247 248 250 243 243 221 212 216 217 209 207 215 220 224 225 224 220 226 232 235 241 241 243